| time (UTC) | temp C | wind direction | speed KPH | gust KPH | rain 1hr cm | rain 24hr cm | rain mn cm | humidity % | barometer mb |
| 20260504141004 | 17 | 235 | 4.8 | 8.0 | 0.00 | 0.00 | 0.00 | 40 | 976.1 |
| 20260504140504 | 17 | 140 | 4.8 | 8.0 | 0.00 | 0.00 | 0.00 | 40 | 976.1 |
| 20260504130504 | 13 | 227 | 8.0 | 9.7 | 0.00 | 0.00 | 0.00 | 47 | 976.5 |
| 20260504110504 | 2 | 180 | 0.0 | 0.0 | 0.00 | 0.00 | 0.00 | 89 | 976.6 |
| 20260504082004 | 2 | 225 | 0.0 | 0.0 | 0.00 | 0.00 | 0.00 | 85 | 976.5 |
| 20260504081504 | 2 | 225 | 0.0 | 0.0 | 0.00 | 0.00 | 0.00 | 84 | 976.5 |
| 20260504081004 | 2 | 225 | 0.0 | 0.0 | 0.00 | 0.00 | 0.00 | 84 | 976.6 |
| 20260504080504 | 2 | 241 | 0.0 | 0.0 | 0.00 | 0.00 | 0.00 | 84 | 976.6 |
| 20260504050503 | 4 | 180 | 1.6 | 1.6 | 0.00 | 0.00 | 0.00 | 81 | 976.3 |
| 20260504050004 | 4 | 180 | 0.0 | 0.0 | 0.00 | 0.00 | 0.00 | 79 | 976.2 |
| 20260504045504 | 5 | 180 | 0.0 | 0.0 | 0.00 | 0.00 | 0.00 | 79 | 976.2 |
| 20260504044504 | 5 | 202 | 0.0 | 1.6 | 0.00 | 0.00 | 0.00 | 78 | 976.2 |
| 20260504043503 | 5 | 180 | 0.0 | 0.0 | 0.00 | 0.00 | 0.00 | 75 | 976.0 |
| 20260504043004 | 5 | 180 | 0.0 | 0.0 | 0.00 | 0.00 | 0.00 | 75 | 976.0 |
| 20260504042504 | 5 | 158 | 0.0 | 0.0 | 0.00 | 0.00 | 0.00 | 75 | 976.0 |
| 20260504042004 | 5 | 225 | 0.0 | 0.0 | 0.00 | 0.00 | 0.00 | 73 | 976.0 |
| 20260504041504 | 5 | 225 | 0.0 | 0.0 | 0.00 | 0.00 | 0.00 | 73 | 976.0 |
| 20260504040504 | 5 | 248 | 1.6 | 3.2 | 0.00 | 0.00 | 0.00 | 72 | 975.9 |
| 20260504040004 | 5 | 225 | 0.0 | 0.0 | 0.00 | 0.00 | 0.00 | 69 | 975.7 |
| 20260504035504 | 5 | 202 | 1.6 | 1.6 | 0.00 | 0.00 | 0.00 | 70 | 975.7 |
| 20260504035004 | 5 | 202 | 0.0 | 0.0 | 0.00 | 0.00 | 0.00 | 68 | 975.7 |
| 20260504034505 | 5 | 202 | 0.0 | 0.0 | 0.00 | 0.00 | 0.00 | 68 | 975.6 |
| 20260504034004 | 5 | 225 | 0.0 | 0.0 | 0.00 | 0.00 | 0.00 | 67 | 975.6 |
| 20260504033504 | 5 | 225 | 0.0 | 0.0 | 0.00 | 0.00 | 0.00 | 67 | 975.7 |
| 20260504032504 | 6 | 202 | 0.0 | 0.0 | 0.00 | 0.00 | 0.00 | 68 | 975.7 |
| 20260504031503 | 6 | 196 | 0.0 | 1.6 | 0.00 | 0.00 | 0.00 | 69 | 975.7 |
| 20260504031004 | 6 | 248 | 1.6 | 1.6 | 0.00 | 0.00 | 0.00 | 69 | 975.7 |
| 20260504030504 | 6 | 248 | 0.0 | 0.0 | 0.00 | 0.00 | 0.00 | 68 | 975.7 |
| 20260504030004 | 6 | 248 | 0.0 | 0.0 | 0.00 | 0.00 | 0.00 | 67 | 975.7 |
| 20260504025504 | 6 | 248 | 0.0 | 0.0 | 0.00 | 0.00 | 0.00 | 66 | 975.7 |
| 20260504025005 | 6 | 248 | 0.0 | 0.0 | 0.00 | 0.00 | 0.00 | 68 | 975.7 |
| 20260504024503 | 6 | 248 | 0.0 | 0.0 | 0.00 | 0.00 | 0.00 | 69 | 975.8 |
| 20260504024004 | 6 | 248 | 0.0 | 0.0 | 0.00 | 0.00 | 0.00 | 67 | 975.8 |
| 20260504023504 | 6 | 248 | 0.0 | 0.0 | 0.00 | 0.00 | 0.00 | 66 | 975.9 |
| 20260504023004 | 6 | 248 | 0.0 | 0.0 | 0.00 | 0.00 | 0.00 | 66 | 975.9 |
| 20260504022504 | 6 | 248 | 0.0 | 0.0 | 0.00 | 0.00 | 0.00 | 67 | 975.9 |
| 20260504021504 | 6 | 248 | 1.6 | 1.6 | 0.00 | 0.00 | 0.00 | 66 | 975.9 |
| 20260504021004 | 6 | 248 | 0.0 | 1.6 | 0.00 | 0.00 | 0.00 | 66 | 975.8 |
| 20260504020504 | 6 | 248 | 1.6 | 1.6 | 0.00 | 0.00 | 0.00 | 67 | 975.8 |
| 20260504015504 | 6 | 248 | 0.0 | 1.6 | 0.00 | 0.00 | 0.00 | 66 | 975.6 |
| 20260504015004 | 7 | 248 | 0.0 | 0.0 | 0.00 | 0.00 | 0.00 | 66 | 975.6 |
| 20260504014005 | 7 | 248 | 0.0 | 0.0 | 0.00 | 0.00 | 0.00 | 64 | 975.6 |
| 20260504013504 | 7 | 248 | 1.6 | 3.2 | 0.00 | 0.00 | 0.00 | 66 | 975.5 |
| 20260504013004 | 7 | 248 | 0.0 | 3.2 | 0.00 | 0.00 | 0.00 | 63 | 975.5 |
| 20260504012504 | 7 | 248 | 1.6 | 3.2 | 0.00 | 0.00 | 0.00 | 62 | 975.4 |
| 20260504012004 | 7 | 248 | 1.6 | 1.6 | 0.00 | 0.00 | 0.00 | 60 | 975.4 |
| 20260504011504 | 7 | 248 | 0.0 | 0.0 | 0.00 | 0.00 | 0.00 | 61 | 975.4 |
| 20260504011004 | 7 | 248 | 1.6 | 1.6 | 0.00 | 0.00 | 0.00 | 59 | 975.3 |
| 20260504010504 | 8 | 248 | 0.0 | 0.0 | 0.00 | 0.00 | 0.00 | 59 | 975.3 |
| 20260504010004 | 8 | 248 | 0.0 | 1.6 | 0.00 | 0.00 | 0.00 | 60 | 975.1 |
| 20260504005504 | 8 | 248 | 1.6 | 3.2 | 0.00 | 0.00 | 0.00 | 57 | 975.1 |
| 20260504005004 | 8 | 225 | 1.6 | 1.6 | 0.00 | 0.00 | 0.00 | 57 | 975.1 |
| 20260504004004 | 9 | 225 | 0.0 | 0.0 | 0.00 | 0.00 | 0.00 | 55 | 975.1 |
| 20260504003504 | 9 | 225 | 0.0 | 0.0 | 0.00 | 0.00 | 0.00 | 54 | 974.9 |
| 20260504003005 | 10 | 225 | 0.0 | 0.0 | 0.00 | 0.00 | 0.00 | 54 | 974.9 |
| 20260504002504 | 10 | 225 | 0.0 | 0.0 | 0.00 | 0.00 | 0.00 | 54 | 974.8 |
| 20260504001504 | 10 | 248 | 1.6 | 3.2 | 0.00 | 0.00 | 0.00 | 53 | 974.8 |
| 20260504001004 | 11 | 248 | 0.0 | 1.6 | 0.00 | 0.00 | 0.00 | 51 | 974.7 |
| 20260504000004 | 11 | 225 | 0.0 | 0.0 | 0.00 | 0.00 | 0.00 | 50 | 974.6 |
| 20260503235504 | 12 | 225 | 1.6 | 1.6 | 0.00 | 0.00 | 0.00 | 45 | 974.6 |
| 20260503235004 | 12 | 225 | 1.6 | 3.2 | 0.00 | 0.00 | 0.00 | 45 | 974.5 |
| 20260503234505 | 12 | 261 | 3.2 | 3.2 | 0.00 | 0.00 | 0.00 | 44 | 974.5 |
| 20260503234020 | 12 | 258 | 3.2 | 8.0 | 0.00 | 0.00 | 0.00 | 43 | 974.5 |
| 20260503233504 | 12 | 237 | 3.2 | 4.8 | 0.00 | 0.00 | 0.00 | 43 | 974.4 |
| 20260503233004 | 12 | 220 | 3.2 | 4.8 | 0.00 | 0.00 | 0.00 | 43 | 974.4 |
| 20260503232504 | 13 | 322 | 4.8 | 8.0 | 0.00 | 0.00 | 0.00 | 42 | 974.3 |
| 20260503232004 | 13 | 267 | 4.8 | 12.9 | 0.00 | 0.00 | 0.00 | 42 | 974.3 |
| 20260503231504 | 13 | 252 | 4.8 | 8.0 | 0.00 | 0.00 | 0.00 | 41 | 974.2 |
| 20260503231003 | 13 | 226 | 4.8 | 12.9 | 0.00 | 0.00 | 0.00 | 41 | 974.2 |
| 20260503230504 | 13 | 248 | 4.8 | 9.7 | 0.00 | 0.00 | 0.00 | 41 | 974.2 |
| 20260503230004 | 13 | 270 | 4.8 | 8.0 | 0.00 | 0.00 | 0.00 | 40 | 974.3 |
| 20260503225005 | 14 | 270 | 8.0 | 9.7 | 0.00 | 0.00 | 0.00 | 39 | 974.2 |
| 20260503224504 | 14 | 248 | 4.8 | 8.0 | 0.00 | 0.00 | 0.00 | 40 | 974.2 |
| 20260503224004 | 14 | 248 | 6.4 | 12.9 | 0.00 | 0.00 | 0.00 | 40 | 974.2 |
| 20260503223505 | 14 | 267 | 6.4 | 12.9 | 0.00 | 0.00 | 0.00 | 40 | 974.2 |
| 20260503223004 | 14 | 257 | 4.8 | 9.7 | 0.00 | 0.00 | 0.00 | 40 | 974.2 |
| 20260503222504 | 14 | 287 | 4.8 | 14.5 | 0.00 | 0.00 | 0.00 | 39 | 974.2 |
| 20260503222004 | 14 | 250 | 9.7 | 12.9 | 0.00 | 0.00 | 0.00 | 39 | 974.2 |
| 20260503221504 | 13 | 242 | 4.8 | 14.5 | 0.00 | 0.00 | 0.00 | 40 | 974.2 |
| 20260503221004 | 13 | 270 | 4.8 | 14.5 | 0.00 | 0.00 | 0.00 | 39 | 974.2 |
| 20260503220504 | 13 | 248 | 6.4 | 9.7 | 0.00 | 0.00 | 0.00 | 39 | 974.2 |
| 20260503215503 | 14 | 277 | 8.0 | 16.1 | 0.00 | 0.00 | 0.00 | 38 | 974.0 |
| 20260503215004 | 14 | 225 | 8.0 | 19.3 | 0.00 | 0.00 | 0.00 | 37 | 974.0 |
| 20260503214504 | 15 | 209 | 4.8 | 11.3 | 0.00 | 0.00 | 0.00 | 37 | 974.0 |
| 20260503214004 | 15 | 243 | 6.4 | 11.3 | 0.00 | 0.00 | 0.00 | 37 | 974.0 |
| 20260503213504 | 15 | 251 | 9.7 | 12.9 | 0.00 | 0.00 | 0.00 | 37 | 973.8 |
| 20260503213004 | 15 | 265 | 8.0 | 20.9 | 0.00 | 0.00 | 0.00 | 36 | 973.8 |
| 20260503212504 | 15 | 112 | 6.4 | 9.7 | 0.00 | 0.00 | 0.00 | 36 | 973.7 |
| 20260503212004 | 15 | 248 | 11.3 | 16.1 | 0.00 | 0.00 | 0.00 | 35 | 973.7 |
| 20260503211504 | 15 | 292 | 9.7 | 14.5 | 0.00 | 0.00 | 0.00 | 35 | 973.7 |
| 20260503211004 | 16 | 130 | 8.0 | 12.9 | 0.00 | 0.00 | 0.00 | 34 | 973.8 |
| 20260503210504 | 16 | 250 | 4.8 | 12.9 | 0.00 | 0.00 | 0.00 | 33 | 973.8 |
| 20260503210005 | 16 | 225 | 4.8 | 8.0 | 0.00 | 0.00 | 0.00 | 34 | 973.9 |
| 20260503205004 | 16 | 214 | 8.0 | 12.9 | 0.00 | 0.00 | 0.00 | 32 | 973.9 |
| 20260503204504 | 16 | 248 | 9.7 | 12.9 | 0.00 | 0.00 | 0.00 | 32 | 973.9 |
| 20260503204004 | 16 | 253 | 9.7 | 14.5 | 0.00 | 0.00 | 0.00 | 32 | 973.9 |
| 20260503203504 | 16 | 248 | 8.0 | 8.0 | 0.00 | 0.00 | 0.00 | 34 | 974.1 |
| 20260503202504 | 16 | 210 | 9.7 | 12.9 | 0.00 | 0.00 | 0.00 | 34 | 974.1 |
| 20260503202004 | 15 | 184 | 4.8 | 9.7 | 0.00 | 0.00 | 0.00 | 35 | 974.1 |
| 20260503201504 | 16 | 135 | 4.8 | 4.8 | 0.00 | 0.00 | 0.00 | 34 | 974.1 |
| 20260503201004 | 16 | 225 | 9.7 | 11.3 | 0.00 | 0.00 | 0.00 | 34 | 974.3 |
| 20260503200504 | 15 | 168 | 9.7 | 11.3 | 0.00 | 0.00 | 0.00 | 35 | 974.3 |
| 20260503195504 | 16 | 224 | 4.8 | 9.7 | 0.00 | 0.00 | 0.00 | 34 | 974.4 |
| 20260503195005 | 15 | 248 | 4.8 | 14.5 | 0.00 | 0.00 | 0.00 | 35 | 974.5 |
| 20260503194504 | 14 | 231 | 4.8 | 12.9 | 0.00 | 0.00 | 0.00 | 36 | 974.6 |
| 20260503194004 | 14 | 170 | 4.8 | 12.9 | 0.00 | 0.00 | 0.00 | 36 | 974.6 |
| 20260503193504 | 14 | 69 | 8.0 | 12.9 | 0.00 | 0.00 | 0.00 | 36 | 974.6 |
| 20260503193004 | 13 | 256 | 8.0 | 16.1 | 0.00 | 0.00 | 0.00 | 35 | 974.6 |
| 20260503192504 | 14 | 219 | 8.0 | 12.9 | 0.00 | 0.00 | 0.00 | 36 | 974.7 |
| 20260503192005 | 14 | 244 | 9.7 | 9.7 | 0.00 | 0.00 | 0.00 | 36 | 974.7 |
| 20260503191004 | 15 | 270 | 11.3 | 11.3 | 0.00 | 0.00 | 0.00 | 35 | 974.9 |
| 20260503190504 | 15 | 261 | 8.0 | 12.9 | 0.00 | 0.00 | 0.00 | 33 | 974.9 |
| 20260503190004 | 16 | 270 | 6.4 | 14.5 | 0.00 | 0.00 | 0.00 | 35 | 974.9 |
| 20260503185504 | 16 | 188 | 9.7 | 16.1 | 0.00 | 0.00 | 0.00 | 35 | 974.9 |
| 20260503185004 | 16 | 204 | 9.7 | 20.9 | 0.00 | 0.00 | 0.00 | 34 | 975.0 |
| 20260503184504 | 15 | 248 | 9.7 | 20.9 | 0.00 | 0.00 | 0.00 | 35 | 975.1 |
| 20260503184004 | 15 | 270 | 14.5 | 20.9 | 0.00 | 0.00 | 0.00 | 35 | 975.1 |
| 20260503183504 | 16 | 225 | 6.4 | 9.7 | 0.00 | 0.00 | 0.00 | 35 | 975.0 |
| 20260503183005 | 16 | 230 | 8.0 | 11.3 | 0.00 | 0.00 | 0.00 | 35 | 975.0 |
| 20260503182005 | 15 | 270 | 11.3 | 12.9 | 0.00 | 0.00 | 0.00 | 35 | 975.2 |
| 20260503181504 | 14 | 133 | 4.8 | 14.5 | 0.00 | 0.00 | 0.00 | 37 | 975.2 |
| 20260503181004 | 14 | 180 | 8.0 | 12.9 | 0.00 | 0.00 | 0.00 | 36 | 975.3 |
| 20260503180504 | 14 | 260 | 8.0 | 19.3 | 0.00 | 0.00 | 0.00 | 36 | 975.3 |
| 20260503180004 | 14 | 270 | 8.0 | 12.9 | 0.00 | 0.00 | 0.00 | 36 | 975.4 |
| 20260503175004 | 13 | 157 | 4.8 | 11.3 | 0.00 | 0.00 | 0.00 | 38 | 975.4 |
| 20260503174504 | 14 | 270 | 9.7 | 20.9 | 0.00 | 0.00 | 0.00 | 36 | 975.4 |
| 20260503174004 | 13 | 225 | 4.8 | 16.1 | 0.00 | 0.00 | 0.00 | 36 | 975.4 |
| 20260503173504 | 14 | 112 | 9.7 | 14.5 | 0.00 | 0.00 | 0.00 | 36 | 975.5 |
| 20260503173004 | 13 | 0 | 9.7 | 16.1 | 0.00 | 0.00 | 0.00 | 37 | 975.5 |
| 20260503172504 | 12 | 138 | 8.0 | 9.7 | 0.00 | 0.00 | 0.00 | 40 | 975.7 |
| 20260503172004 | 12 | 348 | 9.7 | 12.9 | 0.00 | 0.00 | 0.00 | 39 | 975.7 |
| 20260503171504 | 13 | 152 | 8.0 | 12.9 | 0.00 | 0.00 | 0.00 | 37 | 975.7 |
| 20260503151004 | 8 | 248 | 8.0 | 11.3 | 0.00 | 0.00 | 0.00 | 55 | 976.3 |
| 20260503150504 | 8 | 157 | 8.0 | 16.1 | 0.00 | 0.00 | 0.00 | 55 | 976.3 |